Location: Anare
(10.6236°N, 66.6506°W)
Time: 21:06:14
(UTC+00:00)

Cosmos 2181 Rocket - Visible Passes

Search period start: 12 July 2024 00:00
Search period end: 22 July 2024 00:00
Orbit: 950 x 1015 km, 82.9° (Epoch: 11 July)

Date Brightness Start Highest point End Pass type
(mag) Time Alt. Az. Time Alt. Az. Time Alt. Az.
12 Jul 5.9 00:26:11 10° NE 00:26:56 12° ENE 00:26:56 12° ENE visible
12 Jul 5.8 02:09:05 10° NNW 02:11:46 25° NW 02:11:46 25° NW visible
13 Jul 5.2 00:51:34 10° NNE 00:54:45 26° NE 00:54:45 26° NE visible
13 Jul 6.5 02:38:11 10° NW 02:39:35 14° WNW 02:39:35 14° WNW visible
14 Jul 4.7 01:18:29 10° N 01:22:36 45° N 01:22:36 45° N visible
15 Jul 5.7 00:03:41 10° NE 00:05:39 13° ENE 00:05:39 13° ENE visible
15 Jul 5.2 01:46:18 10° NNW 01:50:30 37° NW 01:50:30 37° NW visible
16 Jul 4.8 00:28:54 10° NNE 00:33:36 32° ENE 00:33:36 32° ENE visible
16 Jul 6.2 02:15:17 10° NW 02:18:27 19° WNW 02:18:27 19° WNW visible
17 Jul 3.9 00:55:46 10° N 01:01:34 74° NE 01:01:34 74° NE visible
17 Jul 5.6 23:41:13 10° NE 23:44:05 13° E 23:44:45 13° E visible
18 Jul 4.7 01:23:31 10° NNW 01:29:27 48° W 01:29:36 48° W visible
19 Jul 4.7 00:06:15 10° NNE 00:11:43 32° E 00:12:50 30° ESE visible
19 Jul 6.0 01:52:24 10° NW 01:56:53 21° W 01:57:41 20° W visible
20 Jul 3.9 00:33:03 10° N 00:39:16 73° E 00:40:58 49° SSE visible
20 Jul 5.7 23:18:47 10° ENE 23:21:22 13° E 23:23:59 10° ESE visible
21 Jul 4.7 01:00:45 10° NNW 01:06:45 50° W 01:09:12 33° SW visible
21 Jul 4.8 23:43:36 10° NNE 23:49:00 30° E 23:52:36 18° SE visible
